Location: Killam
(52.7910°N, 111.8608°W)
Time: 11:29:49
(UTC+00:00)

FENGYUN 1C DEB - Pass Details

Date: 03 June 2024
Orbit: 795 x 992 km, 98.4° (Epoch: 16 June)

Event Time Altitude Azimuth Distance (km) Brightness Sun altitude
Rises 07:39:41 0° 8° (N) 3,337 ? -14.8°
Reaches altitude 10° 07:42:28 10° 353° (N) 2,421 ? -14.7°
Maximum altitude 07:46:27 22° 305° (NW) 1,760 ? -14.7°
Drops below altitude 10° 07:50:31 10° 257° (WSW) 2,487 ? -14.6°
Enters shadow 07:53:14 - 243° (WSW) 3,384 ? -14.6°
